Location: Friaudour
(46.0460°N, 1.2873°E)
Time: 08:08:05
(UTC+00:00)

Meteor 1-23 Rocket - Pass Details

Date: 14 July 2020
Orbit: 838 x 887 km, 81.3° (Epoch: 14 August)

Event Time Altitude Azimuth Distance (km) Brightness Sun altitude
Rises 02:25:27 0° 349° (N) 3,462 8.1 -14.8°
Reaches altitude 10° 02:27:53 10° 350° (N) 2,527 7.3 -14.6°
Maximum altitude 02:33:39 84° 80° (E) 889 4.3 -14.0°
Drops below altitude 10° 02:39:27 10° 168° (SSE) 2,536 6.3 -13.4°
Enters shadow 02:40:48 - 169° (S) 3,051 6.7 -13.2°
